Time,TemperatureF,DewpointF,PressureIn,WindDirection,WindDirectionDegrees,WindSpeedMPH,WindSpeedGustMPH,Humidity,HourlyPrecipIn,Conditions,Clouds,dailyrainin,SoftwareType,DateUTC
2013-05-13 00:02:00,72.3,72.0,29.89,SSW,202,3.2,-999.0,99,-99.99,,,0.00,Acu-Link.com,2013-05-13 04:02:00,
2013-05-13 00:17:00,72.3,72.0,29.89,SSW,202,4.2,-999.0,99,-99.99,,,0.00,Acu-Link.com,2013-05-13 04:17:00,
2013-05-13 00:32:00,72.3,72.0,29.89,SW,225,3.2,-999.0,99,-99.99,,,0.00,Acu-Link.com,2013-05-13 04:32:00,
2013-05-13 00:48:00,72.1,71.8,29.89,SSW,202,3.2,-999.0,99,-99.99,,,0.00,Acu-Link.com,2013-05-13 04:48:00,
2013-05-13 01:03:00,72.1,71.8,29.88,SSW,202,3.2,-999.0,99,-99.99,,,0.00,Acu-Link.com,2013-05-13 05:03:00,
2013-05-13 01:18:00,72.1,71.8,29.88,SSW,202,2.7,-999.0,99,-99.99,,,0.00,Acu-Link.com,2013-05-13 05:18:00,
2013-05-13 01:33:00,72.0,71.7,29.88,SW,225,0.0,-999.0,99,-99.99,,,0.00,Acu-Link.com,2013-05-13 05:33:00,
2013-05-13 01:48:00,71.6,71.3,29.87,SW,225,2.7,-999.0,99,-99.99,,,0.00,Acu-Link.com,2013-05-13 05:48:00,
2013-05-13 02:03:00,71.6,71.3,29.87,SW,225,2.7,-999.0,99,-99.99,,,0.00,Acu-Link.com,2013-05-13 06:03:00,
2013-05-13 02:19:00,71.6,71.3,29.86,SSW,202,2.2,-999.0,99,-99.99,,,0.00,Acu-Link.com,2013-05-13 06:19:00,
2013-05-13 02:34:00,71.6,71.3,29.86,SSW,202,3.2,-999.0,99,-99.99,,,0.00,Acu-Link.com,2013-05-13 06:34:00,
2013-05-13 02:49:00,71.4,71.1,29.85,SSW,202,1.7,-999.0,99,-99.99,,,0.00,Acu-Link.com,2013-05-13 06:49:00,
2013-05-13 03:04:00,71.4,71.1,29.84,SSW,202,1.7,-999.0,99,-99.99,,,0.00,Acu-Link.com,2013-05-13 07:04:00,
2013-05-13 03:19:00,71.4,71.1,29.85,SSW,202,2.2,-999.0,99,-99.99,,,0.00,Acu-Link.com,2013-05-13 07:19:00,
2013-05-13 03:34:00,71.2,70.9,29.85,SSW,202,1.7,-999.0,99,-99.99,,,0.00,Acu-Link.com,2013-05-13 07:34:00,
2013-05-13 03:49:00,71.2,70.9,29.86,SSW,202,0.0,-999.0,99,-99.99,,,0.00,Acu-Link.com,2013-05-13 07:49:00,
2013-05-13 04:05:00,71.2,70.9,29.86,SSW,202,1.1,-999.0,99,-99.99,,,0.00,Acu-Link.com,2013-05-13 08:05:00,
2013-05-13 04:20:00,71.1,70.8,29.85,SSW,202,1.1,-999.0,99,-99.99,,,0.00,Acu-Link.com,2013-05-13 08:20:00,
2013-05-13 04:35:00,71.1,70.8,29.85,SSW,202,0.0,-999.0,99,-99.99,,,0.00,Acu-Link.com,2013-05-13 08:35:00,
2013-05-13 04:51:00,71.1,70.8,29.85,SSW,202,0.0,-999.0,99,-99.99,,,0.00,Acu-Link.com,2013-05-13 08:51:00,
2013-05-13 05:06:00,71.4,71.1,29.85,SSW,202,2.2,-999.0,99,-99.99,,,0.00,Acu-Link.com,2013-05-13 09:06:00,
2013-05-13 05:21:00,71.4,71.1,29.84,SSW,202,2.7,-999.0,99,-99.99,,,0.00,Acu-Link.com,2013-05-13 09:21:00,
2013-05-13 05:36:00,71.4,71.1,29.85,West,270,3.2,-999.0,99,-99.99,,,0.00,Acu-Link.com,2013-05-13 09:36:00,
2013-05-13 05:51:00,71.4,71.1,29.86,West,270,2.7,-999.0,99,-99.99,,,0.00,Acu-Link.com,2013-05-13 09:51:00,
2013-05-13 06:06:00,71.4,71.1,29.85,WNW,292,3.7,-999.0,99,-99.99,,,0.01,Acu-Link.com,2013-05-13 10:06:00,
2013-05-13 06:21:00,71.4,71.1,29.85,West,270,2.2,-999.0,99,-99.99,,,0.01,Acu-Link.com,2013-05-13 10:21:00,
2013-05-13 06:37:00,71.2,70.9,29.85,West,270,3.2,-999.0,99,-99.99,,,0.01,Acu-Link.com,2013-05-13 10:37:00,
2013-05-13 06:52:00,71.2,70.9,29.86,West,270,1.7,-999.0,99,-99.99,,,0.01,Acu-Link.com,2013-05-13 10:52:00,
2013-05-13 07:07:00,71.4,71.1,29.87,West,270,1.7,-999.0,99,-99.99,,,0.01,Acu-Link.com,2013-05-13 11:07:00,
2013-05-13 07:22:00,71.6,71.3,29.87,West,270,3.2,-999.0,99,-99.99,,,0.01,Acu-Link.com,2013-05-13 11:22:00,
2013-05-13 07:37:00,71.8,71.5,29.88,WNW,292,2.7,-999.0,99,-99.99,,,0.01,Acu-Link.com,2013-05-13 11:37:00,
2013-05-13 07:52:00,73.0,72.7,29.88,NW,315,2.2,-999.0,99,-99.99,,,0.01,Acu-Link.com,2013-05-13 11:52:00,
2013-05-13 08:07:00,74.5,73.3,29.88,West,270,0.0,-999.0,96,-99.99,,,0.01,Acu-Link.com,2013-05-13 12:07:00,
2013-05-13 08:22:00,76.1,71.9,29.89,NW,315,3.7,-999.0,87,-99.99,,,0.01,Acu-Link.com,2013-05-13 12:22:00,
2013-05-13 08:38:00,77.2,71.6,29.89,WNW,292,3.2,-999.0,83,-99.99,,,0.01,Acu-Link.com,2013-05-13 12:38:00,
2013-05-13 08:53:00,79.2,71.3,29.89,NW,315,5.3,-999.0,77,-99.99,,,0.01,Acu-Link.com,2013-05-13 12:53:00,
2013-05-13 09:08:00,79.0,70.8,29.90,NNW,337,5.3,-999.0,76,-99.99,,,0.01,Acu-Link.com,2013-05-13 13:08:00,
2013-05-13 09:23:00,80.6,71.1,29.90,WNW,292,3.7,-999.0,73,-99.99,,,0.01,Acu-Link.com,2013-05-13 13:23:00,
2013-05-13 09:38:00,79.2,70.2,29.91,West,270,3.7,-999.0,74,-99.99,,,0.01,Acu-Link.com,2013-05-13 13:38:00,
2013-05-13 09:53:00,80.1,69.4,29.91,NNW,337,4.2,-999.0,70,-99.99,,,0.01,Acu-Link.com,2013-05-13 13:53:00,
2013-05-13 10:08:00,80.8,69.2,29.91,NE,45,2.7,-999.0,68,-99.99,,,0.01,Acu-Link.com,2013-05-13 14:08:00,
2013-05-13 10:30:00,81.9,69.4,29.91,NW,315,8.3,-999.0,66,-99.99,,,0.01,Acu-Link.com,2013-05-13 14:30:00,
2013-05-13 11:06:00,82.8,69.8,29.91,West,270,4.2,-999.0,65,-99.99,,,0.01,Acu-Link.com,2013-05-13 15:06:00,
2013-05-13 11:22:00,83.8,69.8,29.91,NW,315,4.2,-999.0,63,-99.99,,,0.01,Acu-Link.com,2013-05-13 15:22:00,
2013-05-13 11:37:00,84.0,69.6,29.92,West,270,6.3,-999.0,62,-99.99,,,0.01,Acu-Link.com,2013-05-13 15:37:00,
2013-05-13 11:52:00,84.2,70.2,29.93,WNW,292,5.3,-999.0,63,-99.99,,,0.01,Acu-Link.com,2013-05-13 15:52:00,
2013-05-13 12:07:00,85.5,70.5,29.93,SW,225,8.9,-999.0,61,-99.99,,,0.01,Acu-Link.com,2013-05-13 16:07:00,
2013-05-13 12:22:00,86.0,71.0,29.92,NW,315,4.2,-999.0,61,-99.99,,,0.01,Acu-Link.com,2013-05-13 16:22:00,
2013-05-13 12:37:00,86.9,71.8,29.92,West,270,10.4,-999.0,61,-99.99,,,0.01,Acu-Link.com,2013-05-13 16:37:00,
2013-05-13 12:53:00,86.0,71.4,29.92,WSW,247,5.3,-999.0,62,-99.99,,,0.01,Acu-Link.com,2013-05-13 16:53:00,
2013-05-13 13:08:00,86.0,70.0,29.92,SW,225,8.9,-999.0,59,-99.99,,,0.01,Acu-Link.com,2013-05-13 17:08:00,
2013-05-13 13:23:00,85.1,71.1,29.92,ENE,67,4.7,-999.0,63,-99.99,,,0.01,Acu-Link.com,2013-05-13 17:23:00,
2013-05-13 13:38:00,87.4,70.8,29.91,West,270,6.8,-999.0,58,-99.99,,,0.01,Acu-Link.com,2013-05-13 17:38:00,
2013-05-13 13:53:00,86.5,70.4,29.92,NW,315,8.9,-999.0,59,-99.99,,,0.01,Acu-Link.com,2013-05-13 17:53:00,
2013-05-13 14:08:00,87.1,70.5,29.91,West,270,6.8,-999.0,58,-99.99,,,0.01,Acu-Link.com,2013-05-13 18:08:00,
2013-05-13 14:23:00,86.4,68.8,29.92,WNW,292,7.3,-999.0,56,-99.99,,,0.01,Acu-Link.com,2013-05-13 18:23:00,
2013-05-13 14:38:00,88.0,69.2,29.91,WNW,292,6.8,-999.0,54,-99.99,,,0.01,Acu-Link.com,2013-05-13 18:38:00,
2013-05-13 14:53:00,85.5,68.0,29.91,NNW,337,6.8,-999.0,56,-99.99,,,0.01,Acu-Link.com,2013-05-13 18:53:00,
2013-05-13 15:09:00,86.9,68.8,29.90,WNW,292,6.3,-999.0,55,-99.99,,,0.01,Acu-Link.com,2013-05-13 19:09:00,
2013-05-13 15:24:00,87.1,68.9,29.90,WNW,292,7.3,-999.0,55,-99.99,,,0.01,Acu-Link.com,2013-05-13 19:24:00,
2013-05-13 15:39:00,85.5,69.0,29.89,North,0,11.4,-999.0,58,-99.99,,,0.01,Acu-Link.com,2013-05-13 19:39:00,
2013-05-13 15:54:00,86.9,68.8,29.90,WNW,292,5.8,-999.0,55,-99.99,,,0.01,Acu-Link.com,2013-05-13 19:54:00,
2013-05-13 16:09:00,85.8,68.3,29.89,NW,315,9.9,-999.0,56,-99.99,,,0.01,Acu-Link.com,2013-05-13 20:09:00,
2013-05-13 16:24:00,86.7,66.9,29.89,WNW,292,5.3,-999.0,52,-99.99,,,0.01,Acu-Link.com,2013-05-13 20:24:00,
2013-05-13 16:40:00,86.9,64.8,29.89,West,270,6.3,-999.0,48,-99.99,,,0.01,Acu-Link.com,2013-05-13 20:40:00,
2013-05-13 16:55:00,86.9,64.2,29.89,WSW,247,8.3,-999.0,47,-99.99,,,0.01,Acu-Link.com,2013-05-13 20:55:00,
2013-05-13 17:10:00,86.9,63.6,29.89,NW,315,3.7,-999.0,46,-99.99,,,0.01,Acu-Link.com,2013-05-13 21:10:00,
2013-05-13 17:25:00,86.5,63.8,29.89,SW,225,4.7,-999.0,47,-99.99,,,0.01,Acu-Link.com,2013-05-13 21:25:00,
2013-05-13 17:40:00,86.5,62.6,29.89,West,270,5.8,-999.0,45,-99.99,,,0.01,Acu-Link.com,2013-05-13 21:40:00,
2013-05-13 17:55:00,87.8,64.4,29.88,West,270,5.8,-999.0,46,-99.99,,,0.01,Acu-Link.com,2013-05-13 21:55:00,
2013-05-13 18:10:00,86.9,64.8,29.88,West,270,5.3,-999.0,48,-99.99,,,0.01,Acu-Link.com,2013-05-13 22:10:00,
2013-05-13 18:25:00,84.7,69.7,29.89,NE,45,8.9,-999.0,61,-99.99,,,0.01,Acu-Link.com,2013-05-13 22:25:00,
2013-05-13 18:40:00,81.7,68.3,29.88,ENE,67,7.3,-999.0,64,-99.99,,,0.01,Acu-Link.com,2013-05-13 22:40:00,
2013-05-13 18:56:00,80.8,67.5,29.88,ESE,112,7.3,-999.0,64,-99.99,,,0.01,Acu-Link.com,2013-05-13 22:56:00,
2013-05-13 19:11:00,79.7,66.4,29.89,NE,45,5.8,-999.0,64,-99.99,,,0.01,Acu-Link.com,2013-05-13 23:11:00,
2013-05-13 19:26:00,79.2,66.4,29.89,NE,45,7.3,-999.0,65,-99.99,,,0.01,Acu-Link.com,2013-05-13 23:26:00,
2013-05-13 19:41:00,79.0,66.2,29.89,NE,45,5.8,-999.0,65,-99.99,,,0.01,Acu-Link.com,2013-05-13 23:41:00,
2013-05-13 19:56:00,78.1,65.8,29.90,ENE,67,5.8,-999.0,66,-99.99,,,0.01,Acu-Link.com,2013-05-13 23:56:00,
2013-05-13 20:11:00,77.5,65.7,29.90,NE,45,4.2,-999.0,67,-99.99,,,0.01,Acu-Link.com,2013-05-14 00:11:00,
2013-05-13 20:26:00,77.2,66.2,29.90,NE,45,5.8,-999.0,69,-99.99,,,0.01,Acu-Link.com,2013-05-14 00:26:00,
2013-05-13 20:41:00,77.2,66.2,29.91,NE,45,4.7,-999.0,69,-99.99,,,0.01,Acu-Link.com,2013-05-14 00:41:00,
2013-05-13 20:57:00,76.6,66.1,29.91,NNW,337,7.3,-999.0,70,-99.99,,,0.01,Acu-Link.com,2013-05-14 00:57:00,
2013-05-13 21:12:00,76.3,66.6,29.91,NE,45,5.8,-999.0,72,-99.99,,,0.01,Acu-Link.com,2013-05-14 01:12:00,
2013-05-13 21:27:00,76.1,66.4,29.91,NE,45,3.2,-999.0,72,-99.99,,,0.01,Acu-Link.com,2013-05-14 01:27:00,
2013-05-13 21:42:00,75.7,66.4,29.91,NE,45,6.3,-999.0,73,-99.99,,,0.01,Acu-Link.com,2013-05-14 01:42:00,
2013-05-13 21:57:00,75.4,66.1,29.92,NE,45,4.2,-999.0,73,-99.99,,,0.01,Acu-Link.com,2013-05-14 01:57:00,
2013-05-13 22:12:00,75.2,66.3,29.92,NE,45,2.7,-999.0,74,-99.99,,,0.01,Acu-Link.com,2013-05-14 02:12:00,
2013-05-13 22:27:00,75.0,66.1,29.94,NE,45,3.2,-999.0,74,-99.99,,,0.01,Acu-Link.com,2013-05-14 02:27:00,
2013-05-13 22:43:00,74.8,65.9,29.94,North,0,3.7,-999.0,74,-99.99,,,0.01,Acu-Link.com,2013-05-14 02:43:00,
2013-05-13 22:58:00,74.7,65.8,29.93,NNE,22,3.7,-999.0,74,-99.99,,,0.01,Acu-Link.com,2013-05-14 02:58:00,
2013-05-13 23:13:00,74.7,66.2,29.93,NE,45,2.7,-999.0,75,-99.99,,,0.01,Acu-Link.com,2013-05-14 03:13:00,
2013-05-13 23:28:00,74.3,65.8,29.93,NE,45,3.2,-999.0,75,-99.99,,,0.01,Acu-Link.com,2013-05-14 03:28:00,
2013-05-13 23:43:00,74.1,66.0,29.94,NE,45,2.2,-999.0,76,-99.99,,,0.01,Acu-Link.com,2013-05-14 03:43:00,
2013-05-13 23:58:00,73.9,65.8,29.94,NE,45,2.2,-999.0,76,-99.99,,,0.01,Acu-Link.com,2013-05-14 03:58:00,